This demonstration page uses our WeatherBlox Daily Observations layout. Learn more.

Left ArrowRight Arrow

Hourly Observations for February 5, 2022

Temp ( °F °C ) Dew Point ( °F °C ) Humidity (%) Winds ( mph kmh ) Pressure ( in mb ) Visibility ( mi km ) Precip ( " mm )
12:53 am 00:53 Clear 42 5.6 32 0 68 68 Calm 30.37 1029 10 16 0.00 0.00
1:53 am 01:53 Clear 41 5 32 0 70 70 VRB 3 6 30.37 1028 10 16 0.00 0.00
2:53 am 02:53 Clear 42 5.6 31 -0.6 65 65 N 5 7 30.35 1028 10 16 0.00 0.00
3:53 am 03:53 Clear 39 3.9 32 0 76 76 Calm 30.34 1027 10 16 0.00 0.00
4:53 am 04:53 Clear 47 8.3 28 -2.2 48 48 N 9 15 30.33 1027 10 16 0.00 0.00
5:53 am 05:53 Clear 55 12.8 24 -4.4 30 30 N 9 15 30.32 1027 10 16 0.00 0.00
6:53 am 06:53 Clear 52 11.1 25 -3.9 35 35 NNW 9 15 30.32 1027 10 16 0.00 0.00
7:53 am 07:53 Sunny 56 13.3 24 -4.4 29 29 N 10 17 30.33 1027 10 16 0.00 0.00
8:53 am 08:53 Sunny 58 14.4 24 -4.4 27 27 N 12 19 30.34 1027 10 16 0.00 0.00
9:53 am 09:53 Sunny 63 17.2 24 -4.4 23 23 N 13 20 30.33 1027 10 16 0.00 0.00
10:53 am 10:53 Sunny 66 18.9 23 -5 19 19 N 17 28 30.32 1027 10 16 0.00 0.00
11:53 am 11:53 Sunny 69 20.6 23 -5 17 17 N 12 19 30.29 1026 10 16 0.00 0.00
12:53 pm 12:53 Sunny 72 22.2 23 -5 16 16 N 23 37 30.25 1024 10 16 0.00 0.00
1:53 pm 13:53 Sunny 73 22.8 24 -4.4 16 16 NNE 18 30 30.23 1024 10 16 0.00 0.00
2:53 pm 14:53 Sunny 75 23.9 23 -5 14 14 N 15 24 30.20 1023 10 16 0.00 0.00
3:53 pm 15:53 Sunny 75 23.9 19 -7.2 12 12 N 20 31 30.21 1023 10 16 0.00 0.00
4:53 pm 16:53 Sunny 74 23.3 19 -7.2 12 12 N 15 24 30.19 1023 10 16 0.00 0.00
5:53 pm 17:53 Clear 70 21.1 21 -6.1 16 16 NNW 9 15 30.21 1023 10 16 0.00 0.00
6:53 pm 18:53 Clear 67 19.4 24 -4.4 20 20 N 7 11 30.22 1023 10 16 0.00 0.00
7:53 pm 19:53 Clear 66 18.9 22 -5.6 19 19 NNW 7 11 30.23 1024 10 16 0.00 0.00
8:53 pm 20:53 Clear 64 17.8 22 -5.6 20 20 NNW 8 13 30.24 1024 10 16 0.00 0.00
9:53 pm 21:53 Clear 65 18.3 23 -5 20 20 NNW 8 13 30.25 1024 10 16 0.00 0.00
10:53 pm 22:53 Clear 65 18.3 22 -5.6 19 19 NNW 10 17 30.26 1025 10 16 0.00 0.00
11:53 pm 23:53 Clear 63 17.2 23 -5 22 22 NW 8 13 30.27 1025 10 16 0.00 0.00

Powered by AerisWeather